TimeCDT,TemperatureF,Dew PointF,Humidity,Sea Level PressureIn,VisibilityMPH,Wind Direction,Wind SpeedMPH,Gust SpeedMPH,PrecipitationIn,Events,Conditions,WindDirDegrees,DateUTC
12:53 AM,64.0,55.0,73,29.49,10.0,SE,13.8,-,N/A,,Clear,130,2013-04-30 05:53:00
1:53 AM,63.0,54.0,72,29.47,10.0,ESE,10.4,-,N/A,,Clear,120,2013-04-30 06:53:00
2:53 AM,63.0,54.0,72,29.45,10.0,ESE,12.7,-,N/A,,Mostly Cloudy,120,2013-04-30 07:53:00
3:53 AM,62.1,54.0,75,29.42,10.0,SE,9.2,-,N/A,,Clear,140,2013-04-30 08:53:00
4:53 AM,62.1,55.0,78,29.42,10.0,SE,10.4,-,N/A,,Clear,140,2013-04-30 09:53:00
5:53 AM,64.0,57.0,78,29.41,10.0,SSE,10.4,-,N/A,,Clear,150,2013-04-30 10:53:00
6:53 AM,66.9,57.0,70,29.41,10.0,SSW,9.2,-,N/A,,Clear,200,2013-04-30 11:53:00
7:53 AM,70.0,57.0,63,29.42,10.0,SSW,13.8,-,N/A,,Clear,210,2013-04-30 12:53:00
8:53 AM,71.1,54.0,55,29.45,10.0,West,13.8,29.9,N/A,,Clear,260,2013-04-30 13:53:00
9:53 AM,69.1,48.0,47,29.52,10.0,West,18.4,29.9,N/A,,Clear,270,2013-04-30 14:53:00
10:53 AM,64.9,45.0,48,29.58,10.0,West,15.0,23.0,N/A,,Clear,270,2013-04-30 15:53:00
11:53 AM,64.9,44.1,47,29.60,10.0,WNW,18.4,23.0,N/A,,Clear,290,2013-04-30 16:53:00
12:53 PM,64.9,43.0,45,29.63,10.0,WNW,18.4,-,N/A,,Clear,300,2013-04-30 17:53:00
1:53 PM,66.0,42.1,42,29.68,10.0,WNW,11.5,20.7,N/A,,Partly Cloudy,300,2013-04-30 18:53:00
2:53 PM,66.9,41.0,39,29.72,10.0,West,10.4,-,N/A,,Scattered Clouds,260,2013-04-30 19:53:00
3:53 PM,66.9,37.9,34,29.72,10.0,WSW,6.9,-,N/A,,Clear,240,2013-04-30 20:53:00
4:53 PM,68.0,34.0,28,29.78,10.0,West,10.4,-,N/A,,Clear,260,2013-04-30 21:53:00
5:53 PM,69.1,28.9,22,29.81,10.0,West,11.5,-,N/A,,Scattered Clouds,280,2013-04-30 22:53:00
6:53 PM,66.0,26.1,22,29.83,10.0,West,8.1,-,N/A,,Clear,270,2013-04-30 23:53:00
7:53 PM,64.0,27.0,25,29.82,8.0,WNW,9.2,-,N/A,,Clear,300,2013-05-01 00:53:00
8:53 PM,61.0,30.9,32,29.84,10.0,NNW,9.2,-,N/A,,Scattered Clouds,330,2013-05-01 01:53:00
9:53 PM,57.9,33.1,39,29.88,10.0,Calm,Calm,-,N/A,,Overcast,0,2013-05-01 02:53:00
10:53 PM,57.9,36.0,44,29.92,10.0,NW,6.9,-,N/A,,Overcast,320,2013-05-01 03:53:00
11:53 PM,57.0,35.1,44,29.97,10.0,WNW,12.7,17.3,N/A,,Overcast,300,2013-05-01 04:53:00